sat.trackr.live / text

‹ back to catalog

STARLINK-32636

NORAD 62232 · 2024-231Q

PAYLOAD ACTIVE UNKNOWN

§ Identity

Operator
Country
US
Launch date
2024-12-05
Launch site
AFWTR
Launch vehicle
Mass (kg)
RCS (m²)

Purposes: comms

External: N2YO · Heavens-Above · Gunter

§ Orbital elements

Epoch: 2026-09-21T15:35:11.345568Z

Period
93.85 min
Inclination
53.1590°
Eccentricity
0.0001052
Mean motion
15.34391073 rev/d
Perigee alt
462.0 km
Apogee alt
463.4 km
Semi-major
6,840.9 km
B*
4.4820e-4
RAAN
28.5046°
Arg perigee
72.2566°
Mean anomaly
287.8551°
Rev number
10,178

§ Raw data

STARLINK-326361 62232U 24231Q   26264.64943687  .00014792  00000+0  44820-3 0  99972 62232  53.1590  28.5046 0001052  72.2566 287.8551 15.34391073101780

JSON: /api/v1/satellites/62232 · /tle

For live sub-satellite position, see the globe view (requires WebGL).

§ Visibility from observer

Set your observer location to see the next 7 days of passes ≥ 10°. The values pass through the URL so the page stays shareable.

No JS? Fill the form by hand. The geolocation button needs JavaScript.